Location: Birkenwerder
(52.6919°N, 13.2774°E)
Time: 23:41:30
(UTC+00:00)

Cosmos 1570 Rocket - Pass Details

Date: 06 October 2020
Orbit: 763 x 788 km, 74.1° (Epoch: 24 October)

Event Time Altitude Azimuth Distance (km) Brightness Sun altitude
Exits shadow 01:08:53 35° 46° (NE) 1,259 5.5 -35.2°
Drops below altitude 10° 01:12:04 10° 31° (NNE) 2,363 7.3 -34.8°
Sets 01:14:29 0° 28° (NNE) 3,296 8.2 -34.6°
